Weather in Are

Sweden     63°23′14″N   13°09′11″E
temp.,
°C
wind,
m/s
gust,
m/s
humid.,
%
clouds,
%
prec.,
mm/h
press.,
hPa
HPBL,
m
4 march, thu
thu401:00−5wnw4119153 1.0 10201123
04:00−8w36958 0.1 1019161
07:00−7w259732 0.6 1019161
10:00−4wnw388933 0.1 1019781
13:00−3nw5108363 0.4 10191265
16:00−4wnw31089100 0.6 10181132
19:00−7w2995100 0.8 1019398
22:00−8w239652 0.1 102063
5 march, fri
fri501:00−8w229649 0.3 102157
04:00−8w229532 0.1 102253
07:00−8w229658 0.4 102334
10:00−5w279089 0.1 1023518
13:00−3wnw498495 0.3 10221155
16:00−3w31093100 0.5 10201035
19:00−5sw21297100 0.9 1018578
22:00−2w61794100 1.3 10151335
6 march, sat
sat601:00−1w82093100 3.5 10111615
04:000wnw102396100 2.6 10081889
07:000wnw122394100 6.0 10051882
10:00−1wnw112284100 2.7 10031930
13:00−5wnw71891100 5.1 10061911
16:00−7wnw92185100 0.6 10072485
19:00−8wnw72090100 1.4 10092576
22:00−8wnw51890100 1.3 10092152
7 march, sun
sun701:00−7wnw82189100 2.3 10062450
04:00−6wnw11258897 0.6 10062395
07:00−11wnw377965 1.6 1012142
10:00−8wnw25850 0.0 1014243
13:00−5w239045 0.1 1015429
16:00−5nw1394100 0.2 1017244
19:00−11nw229562 0.2 102021
22:00−12w12948 0.0 102121
8 march, mon
mon801:00−12w129516 0.0 102120
04:00−11w1193100 0.0 102121
07:00−11w1190100 0.0 102021
10:00−6s008779 0.0 101976
13:00−4se128077 0.0 1018254
16:00−4e1292100 0.0 1016144
19:00−10e0195100 0.0 101521
22:00−13ese01960 0.0 101421